| time (UTC) | temp C | wind direction | speed KPH | gust KPH | rain 1hr cm | rain 24hr cm | rain mn cm | humidity % | barometer mb |
| 20260504042605 | 7 | 204 | 0.0 | 4.8 | 0.03 | 0.03 | 0.03 | 90 | 1005.5 |
| 20260504041605 | 7 | 202 | 1.6 | 4.8 | 0.00 | 0.00 | 0.00 | 89 | 1005.5 |
| 20260504040604 | 7 | 201 | 1.6 | 4.8 | 0.00 | 0.00 | 0.00 | 88 | 1005.6 |
| 20260504035606 | 7 | 201 | 1.6 | 4.8 | 0.00 | 0.00 | 0.00 | 87 | 1005.6 |
| 20260504034604 | 7 | 208 | 3.2 | 8.0 | 0.00 | 0.00 | 0.00 | 85 | 1005.7 |
| 20260504033604 | 7 | 207 | 6.4 | 11.3 | 0.00 | 0.00 | 0.00 | 83 | 1005.9 |
| 20260504032604 | 7 | 200 | 8.0 | 11.3 | 0.00 | 0.00 | 0.00 | 82 | 1005.9 |
| 20260504031604 | 7 | 204 | 8.0 | 11.3 | 0.00 | 0.00 | 0.00 | 81 | 1006.2 |
| 20260504030604 | 7 | 227 | 4.8 | 12.9 | 0.00 | 0.00 | 0.00 | 80 | 1006.3 |
| 20260504025604 | 7 | 212 | 3.2 | 11.3 | 0.00 | 0.00 | 0.00 | 79 | 1006.3 |
| 20260504024604 | 7 | 202 | 6.4 | 12.9 | 0.00 | 0.00 | 0.00 | 78 | 1006.4 |
| 20260504023604 | 7 | 207 | 3.2 | 9.7 | 0.00 | 0.00 | 0.00 | 78 | 1006.5 |
| 20260504021604 | 7 | 219 | 4.8 | 9.7 | 0.00 | 0.00 | 0.00 | 76 | 1006.6 |
| 20260504015604 | 7 | 226 | 6.4 | 14.5 | 0.00 | 0.00 | 0.00 | 74 | 1006.5 |
| 20260504014604 | 7 | 214 | 9.7 | 19.3 | 0.00 | 0.00 | 0.00 | 74 | 1006.5 |
| 20260504013604 | 8 | 220 | 4.8 | 12.9 | 0.00 | 0.00 | 0.00 | 74 | 1006.4 |
| 20260504012604 | 8 | 224 | 6.4 | 9.7 | 0.00 | 0.00 | 0.00 | 73 | 1006.4 |
| 20260504011604 | 8 | 241 | 3.2 | 16.1 | 0.00 | 0.00 | 0.00 | 71 | 1006.4 |
| 20260504010604 | 8 | 224 | 8.0 | 16.1 | 0.00 | 0.00 | 0.00 | 70 | 1006.4 |
| 20260504004605 | 8 | 207 | 8.0 | 19.3 | 0.00 | 0.00 | 0.00 | 67 | 1006.3 |
| 20260504002604 | 9 | 207 | 9.7 | 24.1 | 0.00 | 0.00 | 0.00 | 63 | 1006.2 |
| 20260504001604 | 10 | 240 | 14.5 | 27.4 | 0.00 | 0.00 | 0.00 | 62 | 1006.1 |
| 20260504000604 | 10 | 208 | 8.0 | 27.4 | 0.00 | 0.00 | 0.00 | 62 | 1006.0 |
| 20260503235604 | 10 | 206 | 9.7 | 19.3 | 0.00 | 0.00 | 0.00 | 62 | 1006.0 |
| 20260503234604 | 10 | 196 | 4.8 | 11.3 | 0.00 | 0.00 | 0.00 | 63 | 1006.0 |
| 20260503233604 | 10 | 199 | 4.8 | 8.0 | 0.00 | 0.00 | 0.00 | 62 | 1006.0 |
| 20260503230604 | 11 | 179 | 4.8 | 9.7 | 0.00 | 0.00 | 0.00 | 57 | 1006.1 |
| 20260503225604 | 11 | 270 | 9.7 | 14.5 | 0.00 | 0.00 | 0.00 | 53 | 1006.1 |
| 20260503224604 | 11 | 222 | 3.2 | 12.9 | 0.00 | 0.00 | 0.00 | 56 | 1006.3 |
| 20260503223605 | 11 | 228 | 6.4 | 19.3 | 0.00 | 0.00 | 0.00 | 55 | 1006.4 |
| 20260503222605 | 12 | 213 | 11.3 | 19.3 | 0.00 | 0.00 | 0.00 | 51 | 1006.5 |
| 20260503220605 | 13 | 231 | 9.7 | 24.1 | 0.00 | 0.00 | 0.00 | 42 | 1006.4 |
| 20260503215605 | 13 | 249 | 9.7 | 19.3 | 0.00 | 0.00 | 0.00 | 40 | 1006.2 |
| 20260503214605 | 13 | 271 | 9.7 | 22.5 | 0.00 | 0.00 | 0.00 | 40 | 1006.2 |
| 20260503211604 | 13 | 229 | 14.5 | 32.2 | 0.00 | 0.00 | 0.00 | 38 | 1006.1 |
| 20260503210605 | 14 | 220 | 14.5 | 32.2 | 0.00 | 0.00 | 0.00 | 38 | 1006.1 |
| 20260503205605 | 14 | 214 | 14.5 | 29.0 | 0.00 | 0.00 | 0.00 | 36 | 1006.2 |
| 20260503204606 | 13 | 272 | 11.3 | 29.0 | 0.00 | 0.00 | 0.00 | 37 | 1006.3 |
| 20260503203605 | 14 | 197 | 9.7 | 20.9 | 0.00 | 0.00 | 0.00 | 39 | 1006.5 |
| 20260503202605 | 13 | 228 | 12.9 | 32.2 | 0.00 | 0.00 | 0.00 | 42 | 1006.6 |
| 20260503201605 | 13 | 232 | 9.7 | 29.0 | 0.00 | 0.00 | 0.00 | 43 | 1006.7 |
| 20260503200605 | 13 | 351 | 16.1 | 27.4 | 0.00 | 0.00 | 0.00 | 42 | 1006.8 |
| 20260503195605 | 13 | 318 | 12.9 | 33.8 | 0.00 | 0.00 | 0.00 | 43 | 1006.9 |
| 20260503194604 | 13 | 219 | 9.7 | 32.2 | 0.00 | 0.00 | 0.00 | 45 | 1007.0 |
| 20260503193605 | 13 | 250 | 11.3 | 25.7 | 0.00 | 0.00 | 0.00 | 46 | 1007.1 |
| 20260503192605 | 13 | 239 | 14.5 | 25.7 | 0.00 | 0.00 | 0.00 | 43 | 1007.3 |
| 20260503190605 | 13 | 221 | 17.7 | 27.4 | 0.00 | 0.00 | 0.00 | 45 | 1007.3 |
| 20260503185605 | 13 | 201 | 11.3 | 22.5 | 0.00 | 0.00 | 0.00 | 45 | 1007.6 |
| 20260503184605 | 13 | 222 | 16.1 | 32.2 | 0.00 | 0.00 | 0.00 | 46 | 1007.7 |
| 20260503183605 | 13 | 226 | 14.5 | 33.8 | 0.00 | 0.00 | 0.00 | 45 | 1007.8 |
| 20260503182605 | 13 | 222 | 11.3 | 20.9 | 0.00 | 0.00 | 0.00 | 45 | 1007.9 |
| 20260503181605 | 12 | 203 | 16.1 | 33.8 | 0.00 | 0.00 | 0.00 | 45 | 1008.1 |
| 20260503180604 | 13 | 215 | 14.5 | 29.0 | 0.00 | 0.00 | 0.00 | 45 | 1008.2 |
| 20260503174604 | 12 | 227 | 19.3 | 29.0 | 0.00 | 0.00 | 0.00 | 43 | 1008.4 |
| 20260503173605 | 13 | 223 | 17.7 | 32.2 | 0.00 | 0.00 | 0.00 | 43 | 1008.5 |
| 20260503172604 | 13 | 239 | 16.1 | 35.4 | 0.00 | 0.00 | 0.00 | 43 | 1008.6 |
| 20260503171605 | 12 | 224 | 12.9 | 29.0 | 0.00 | 0.00 | 0.00 | 44 | 1008.7 |
| 20260503170604 | 12 | 225 | 17.7 | 32.2 | 0.00 | 0.00 | 0.00 | 42 | 1008.9 |
| 20260503150605 | 10 | 246 | 9.7 | 22.5 | 0.00 | 0.00 | 0.00 | 37 | 1010.4 |
| 20260503130604 | 7 | 294 | 4.8 | 12.9 | 0.00 | 0.00 | 0.00 | 51 | 1011.3 |
| 20260503110604 | 0 | 235 | 0.0 | 0.0 | 0.00 | 0.00 | 0.00 | 92 | 1011.3 |
| 20260503081605 | 1 | 235 | 1.6 | 4.8 | 0.00 | 0.00 | 0.00 | 78 | 1011.3 |
| 20260503072604 | 3 | 272 | 1.6 | 4.8 | 0.00 | 0.00 | 0.00 | 70 | 1011.3 |
| 20260503071604 | 3 | 278 | 3.2 | 8.0 | 0.00 | 0.00 | 0.00 | 72 | 1011.3 |
| 20260503070604 | 2 | 250 | 3.2 | 8.0 | 0.00 | 0.00 | 0.00 | 72 | 1011.3 |
| 20260503054604 | 3 | 243 | 4.8 | 8.0 | 0.00 | 0.00 | 0.00 | 74 | 1011.5 |
| 20260503052604 | 2 | 250 | 1.6 | 8.0 | 0.00 | 0.00 | 0.00 | 78 | 1011.6 |
| 20260503051605 | 2 | 263 | 3.2 | 4.8 | 0.00 | 0.00 | 0.00 | 79 | 1011.6 |
| 20260503050604 | 2 | 266 | 3.2 | 4.8 | 0.00 | 0.00 | 0.00 | 80 | 1011.8 |
| 20260503045604 | 2 | 268 | 3.2 | 4.8 | 0.00 | 0.00 | 0.00 | 81 | 1011.7 |
| 20260503044604 | 2 | 282 | 3.2 | 4.8 | 0.00 | 0.00 | 0.00 | 82 | 1011.7 |
| 20260503043604 | 2 | 282 | 3.2 | 4.8 | 0.00 | 0.00 | 0.00 | 84 | 1011.8 |